Temp
75 78 82 82 71 68 66 70 74 74 77 85 85 83 83 83 79 74 86 88 89 86 85 84 80 80 80 79 79 79 79 79 79 79 79 79 79 79 79 79 80 80 81 81 81 81 80 80 80
78 78 81 75 66 61 67 72 71 80 83 84 85 87 84 82 88 82 83 86 88 86 85 85 79 79 79 79 78 78 78 78 79 79 79 79 79 79 79 79 80 80 81 81 81 81 80 80 80
77 77 75 71 65 62 68 71 77 82 84 83 84 88 85 84 87 88 87 86 86 85 86 84 79 79 79 79 78 78 78 78 78 79 79 79 79 79 79 79 79 80 81 81 80 80 80 80 79
77 77 72 63 61 67 71 74 77 79 84 84 84 82 90 89 87 88 87 86 84 86 86 81 79 78 79 79 78 78 78 78 78 79 79 79 79 78 78 79 79 80 80 80 80 80 79 79 79
76 71 64 59 62 65 70 77 75 76 78 82 82 82 84 84 86 86 86 86 84 84 87 85 78 78 79 79 78 78 78 78 78 79 79 79 78 78 78 78 79 80 80 80 79 79 78 78 78
68 68 58 58 62 64 70 73 76 77 80 81 81 82 85 84 84 84 87 87 88 84 84 84 79 78 78 78 78 78 78 78 78 78 78 78 78 78 78 78 78 79 79 79 79 78 78 78 78
65 62 60 61 62 65 69 74 73 76 79 81 85 79 85 82 84 85 86 86 86 86 84 84 84 81 78 78 78 78 78 78 78 78 78 78 78 78 78 78 78 78 78 78 78 78 78 77 77
67 64 60 60 61 63 72 73 77 77 78 89 86 79 82 83 84 84 85 85 86 86 86 84 84 86 84 83 78 78 78 78 77 77 77 77 77 77 77 77 77 78 78 78 78 78 77 77 77
66 58 56 59 60 66 71 71 76 80 80 81 86 88 86 84 83 81 80 81 84 84 82 84 85 85 85 86 82 78 78 78 77 78 77 77 86 84 83 80 77 78 78 78 77 77 77 77 77
62 57 59 64 67 68 71 73 75 74 75 78 81 89 90 84 81 78 77 77 81 81 80 82 84 84 85 85 83 83 83 84 84 85 83 86 84 84 85 82 77 78 78 77 77 77 77 78 88
61 55 64 64 67 69 69 69 74 73 71 78 79 84 85 82 81 81 81 82 83 82 78 80 81 82 84 85 83 84 84 84 83 82 82 82 84 84 85 86 86 84 80 87 84 85 87 85 86
54 60 61 64 66 64 64 68 67 71 75 82 82 80 83 80 80 81 82 83 83 81 78 78 80 80 82 84 83 83 83 82 83 83 81 81 81 81 82 84 84 83 86 84 84 88 84 84 84
54 60 61 63 63 64 66 64 65 68 74 78 80 79 80 83 81 82 83 84 84 81 79 77 78 80 81 80 82 83 82 82 83 83 82 83 83 81 82 82 84 85 86 86 86 86 84 84 84
56 57 58 61 63 64 61 64 66 70 76 75 76 78 81 82 84 82 80 80 80 81 78 78 78 80 82 81 80 81 81 83 83 83 82 80 82 80 82 82 83 84 85 87 86 84 83 81 81
57 52 56 58 60 60 64 58 61 72 75 73 74 77 79 81 85 82 82 79 80 80 80 76 79 81 81 81 81 81 82 83 83 83 81 81 80 80 80 82 83 84 84 83 84 83 82 79 79
52 52 47 56 59 62 62 53 68 74 72 72 75 77 79 81 85 84 83 80 80 80 78 77 81 81 80 79 79 81 82 82 83 83 82 81 80 80 79 82 83 84 84 85 81 76 75 75 77
48 43 44 49 60 59 59 56 67 72 72 70 73 75 78 80 83 82 82 81 80 80 78 77 79 80 79 75 76 79 79 81 83 82 82 81 81 81 81 82 82 81 78 77 77 74 73 72 72
42 42 46 46 55 58 56 56 64 68 69 68 70 73 75 78 82 81 81 80 79 79 79 78 78 76 74 73 77 80 80 81 82 82 82 80 81 80 80 82 80 79 77 77 76 73 71 69 69
49 45 44 49 55 52 53 55 59 63 66 66 69 72 74 76 83 81 80 78 78 78 75 74 73 73 74 76 77 78 79 79 80 81 81 81 81 80 80 77 76 77 73 72 71 71 69 68 68
47 44 44 50 53 52 51 51 58 61 63 66 68 71 73 76 78 78 78 78 77 74 72 73 75 76 76 80 79 81 81 80 81 81 79 80 79 76 74 72 71 72 69 68 66 66 68 66 66
45 43 44 43 50 52 50 47 52 60 64 66 69 73 75 76 76 76 77 77 76 75 74 74 75 75 77 77 79 78 79 79 72 71 72 70 70 71 74 69 67 68 67 64 64 65 66 65 68
40 50 47 45 42 38 51 38 52 58 60 64 68 71 74 76 78 77 77 76 77 78 80 78 76 75 76 76 78 77 78 68 68 68 67 67 69 68 68 67 65 66 65 64 64 64 66 66 66
42 51 47 45 42 42 44 41 49 57 56 62 67 71 73 78 78 77 78 78 80 80 80 78 76 76 77 77 78 71 67 66 66 66 65 64 64 67 64 63 62 62 63 63 64 64 63 65 64
49 41 42 42 41 30 41 42 46 52 57 63 69 72 73 76 79 79 80 80 79 80 78 76 75 74 76 75 71 69 67 66 64 64 63 63 61 61 61 60 60 62 62 63 63 63 62 62 64
42 36 29 26 26 28 46 41 46 58 63 66 70 73 74 75 78 78 78 77 75 74 74 75 71 72 74 71 70 70 69 68 65 65 63 61 60 60 58 60 60 61 62 63 63 63 63 64 64
38 40 32 22 26 35 44 35 46 59 64 67 72 75 74 73 77 77 78 77 75 74 73 72 73 72 72 71 70 71 72 72 70 67 66 65 61 58 58 59 61 62 62 61 62 64 64 63 64
35 32 45 32 39 36 41 47 56 60 62 65 67 69 71 72 74 75 76 74 70 70 69 70 72 71 73 69 70 73 71 68 65 64 64 62 61 61 60 61 60 61 61 61 61 63 62 63 63
38 46 30 33 26 26 38 41 45 55 58 64 66 68 71 72 74 74 73 69 69 67 66 67 68 68 69 70 72 69 66 64 63 63 60 61 61 60 60 61 60 59 61 60 60 61 61 62 64
36 34 36 40 38 30 33 42 58 60 62 63 68 71 70 72 73 71 68 66 64 62 63 63 64 65 65 65 64 63 63 64 63 63 63 61 60 60 59 59 59 58 59 59 59 60 61 62 62
47 41 41 33 33 36 34 43 64 64 67 66 68 68 73 73 69 65 62 62 61 60 60 60 61 61 61 62 62 61 61 61 62 61 61 61 60 60 59 59 58 58 57 58 59 60 61 62 63
MSLP
1012.15 1012.08 1011.90 1011.26 1011.09 1009.73 1007.59 1006.60 1006.15 1005.46 1004.92 1004.18 1004.14 1003.96 1003.64 1003.77 1003.73 1005.00 1005.33 1005.60 1005.91 1006.86 1007.52 1008.04 1008.22 1008.78 1009.39 1009.78 1010.08 1010.43 1010.88 1011.41 1011.84 1012.23 1012.62 1012.98 1013.35 1013.80 1013.98 1014.14 1014.48 1014.78 1014.99 1015.11 1015.21 1015.33 1015.50 1015.56 1015.67
1011.99 1011.99 1011.59 1011.05 1009.92 1008.26 1006.67 1006.26 1005.62 1004.78 1004.56 1004.38 1004.08 1003.69 1003.62 1003.02 1003.55 1004.43 1005.05 1005.97 1006.24 1007.09 1007.59 1008.03 1008.32 1008.94 1009.55 1010.10 1010.26 1010.63 1011.00 1011.48 1011.93 1012.31 1012.77 1013.10 1013.44 1013.88 1014.21 1014.36 1014.58 1014.80 1015.06 1015.25 1015.41 1015.58 1015.68 1015.84 1015.94
1011.94 1011.94 1011.20 1010.34 1008.94 1006.90 1005.91 1005.81 1005.51 1004.87 1004.67 1004.53 1003.95 1003.59 1003.44 1003.12 1003.34 1003.76 1004.77 1005.84 1006.45 1007.40 1007.73 1008.27 1008.46 1009.04 1009.58 1010.06 1010.31 1010.80 1011.13 1011.63 1011.99 1012.34 1012.71 1013.12 1013.51 1013.88 1014.28 1014.44 1014.62 1014.84 1015.10 1015.36 1015.52 1015.66 1015.81 1015.91 1016.03
1011.81 1011.66 1011.73 1010.06 1007.79 1007.16 1006.39 1005.75 1005.50 1005.04 1004.59 1004.58 1004.28 1003.71 1003.18 1003.54 1003.73 1004.12 1005.12 1005.79 1006.17 1007.08 1007.73 1008.37 1008.75 1009.22 1009.73 1010.11 1010.46 1010.86 1011.25 1011.66 1012.01 1012.43 1012.86 1013.14 1013.53 1013.85 1014.23 1014.58 1014.77 1014.97 1015.24 1015.50 1015.65 1015.82 1015.96 1016.07 1016.18
1011.92 1011.47 1010.19 1009.02 1007.79 1007.32 1006.86 1006.16 1005.90 1005.16 1004.86 1004.38 1004.49 1003.48 1003.36 1004.06 1004.43 1004.74 1005.27 1006.02 1006.24 1006.68 1007.62 1008.38 1008.83 1009.40 1009.84 1010.35 1010.69 1010.97 1011.39 1011.79 1012.15 1012.46 1012.99 1013.37 1013.71 1014.00 1014.37 1014.74 1015.02 1015.22 1015.47 1015.68 1015.86 1016.02 1016.18 1016.25 1016.37
1011.44 1011.20 1009.59 1007.74 1007.31 1007.44 1006.99 1006.66 1006.11 1005.36 1004.88 1004.52 1004.42 1003.94 1003.65 1004.60 1004.86 1005.20 1005.61 1006.16 1006.78 1006.83 1007.75 1008.40 1009.14 1009.58 1009.98 1010.48 1010.81 1011.10 1011.56 1011.94 1012.28 1012.60 1013.12 1013.56 1013.87 1014.04 1014.42 1014.77 1015.00 1015.20 1015.43 1015.61 1015.73 1015.93 1016.05 1016.15 1016.25
1010.76 1010.36 1008.30 1007.78 1007.34 1007.01 1006.72 1006.63 1005.90 1005.52 1004.68 1003.98 1004.43 1003.96 1003.74 1004.29 1004.99 1005.44 1005.72 1006.44 1006.94 1007.27 1007.75 1008.44 1009.08 1009.68 1010.00 1010.44 1010.87 1011.14 1011.69 1011.95 1012.30 1012.64 1013.12 1013.54 1013.91 1014.20 1014.50 1014.77 1015.14 1015.39 1015.58 1015.79 1015.87 1016.00 1016.23 1016.39 1016.36
1010.90 1010.40 1008.32 1007.67 1006.92 1006.15 1006.13 1006.09 1005.54 1005.20 1004.36 1004.24 1004.42 1003.66 1003.34 1004.17 1005.16 1005.64 1006.00 1006.58 1007.04 1007.42 1007.79 1008.44 1009.02 1009.55 1010.06 1010.50 1011.04 1011.43 1011.73 1012.12 1012.45 1012.84 1013.24 1013.56 1013.85 1014.17 1014.68 1014.96 1015.27 1015.53 1015.69 1015.90 1016.04 1016.10 1016.16 1016.30 1016.24
1011.28 1009.98 1007.80 1007.44 1007.06 1006.21 1006.32 1005.85 1005.52 1005.01 1004.43 1004.16 1003.61 1003.23 1003.91 1004.54 1005.31 1005.86 1006.16 1006.72 1007.05 1007.43 1008.10 1008.46 1008.85 1009.44 1009.84 1010.36 1011.12 1011.64 1012.03 1012.34 1012.75 1013.16 1013.47 1013.78 1013.74 1014.22 1014.70 1014.98 1015.39 1015.72 1015.98 1016.05 1016.09 1016.16 1016.24 1016.28 1016.26
1010.52 1008.93 1007.72 1007.92 1007.44 1006.64 1006.22 1005.84 1005.34 1005.07 1004.47 1003.89 1003.48 1003.10 1003.48 1004.29 1004.95 1005.36 1005.72 1006.00 1006.59 1007.20 1007.94 1008.45 1008.82 1009.34 1009.85 1010.39 1010.85 1011.29 1011.88 1012.24 1012.60 1013.04 1013.43 1013.56 1013.90 1014.24 1014.50 1015.00 1015.49 1015.81 1016.01 1016.03 1016.04 1016.04 1016.06 1016.20 1015.70
1010.26 1008.54 1008.44 1008.15 1007.85 1007.58 1006.63 1006.19 1005.82 1005.17 1004.13 1003.70 1003.31 1003.10 1003.54 1004.12 1004.59 1004.67 1005.10 1005.08 1005.62 1006.85 1007.80 1008.37 1008.89 1009.29 1009.62 1010.09 1010.66 1011.01 1011.53 1012.09 1012.57 1012.96 1013.30 1013.68 1014.02 1014.41 1014.60 1014.88 1015.18 1015.49 1015.89 1015.61 1015.75 1015.71 1015.74 1015.78 1015.77
1010.66 1009.72 1009.32 1008.68 1008.38 1008.11 1007.41 1006.91 1006.06 1005.21 1004.12 1003.88 1003.72 1003.94 1003.85 1004.16 1004.50 1004.48 1004.60 1004.94 1005.29 1006.45 1007.55 1008.31 1008.90 1009.32 1009.57 1009.89 1010.40 1010.82 1011.27 1011.88 1012.25 1012.72 1013.28 1013.66 1014.02 1014.48 1014.67 1014.85 1015.14 1015.49 1015.50 1015.61 1015.68 1015.60 1015.91 1016.04 1015.93
1010.63 1009.83 1009.74 1009.39 1009.08 1008.45 1007.69 1006.74 1006.36 1005.01 1004.87 1004.54 1003.99 1003.94 1003.95 1003.68 1004.00 1004.49 1004.86 1005.21 1005.69 1006.15 1007.14 1008.10 1008.72 1009.27 1009.62 1009.95 1010.36 1010.79 1011.36 1011.75 1012.12 1012.65 1013.18 1013.54 1013.89 1014.38 1014.65 1014.90 1015.11 1015.34 1015.42 1015.44 1015.53 1015.70 1015.84 1015.69 1015.57
1010.78 1010.34 1009.93 1009.32 1008.82 1008.54 1007.78 1006.48 1006.22 1004.24 1004.52 1004.21 1004.18 1003.35 1003.44 1003.39 1003.28 1003.98 1004.61 1004.94 1005.39 1005.90 1006.67 1007.80 1008.44 1009.01 1009.50 1009.85 1010.44 1010.92 1011.44 1011.77 1012.20 1012.53 1013.05 1013.66 1013.91 1014.21 1014.42 1014.86 1015.12 1015.22 1015.42 1015.48 1015.56 1015.72 1015.80 1015.93 1015.86
1011.00 1010.37 1009.64 1008.94 1008.58 1007.91 1007.82 1006.21 1003.57 1004.71 1004.41 1003.84 1003.48 1003.11 1002.96 1002.89 1002.83 1003.04 1003.72 1004.74 1005.52 1006.02 1006.46 1007.45 1008.14 1008.76 1009.31 1009.91 1010.56 1011.08 1011.37 1011.73 1012.11 1012.50 1013.08 1013.49 1013.82 1014.17 1014.50 1014.77 1015.04 1015.09 1015.45 1015.53 1015.52 1015.76 1015.90 1016.05 1015.75
1010.90 1010.34 1009.21 1008.38 1007.98 1007.43 1007.36 1004.06 1002.13 1003.72 1003.71 1002.71 1002.96 1002.42 1002.34 1002.17 1002.07 1002.47 1003.31 1004.38 1005.49 1006.12 1006.46 1007.22 1007.88 1008.56 1009.27 1009.90 1010.49 1010.99 1011.32 1011.74 1012.02 1012.50 1012.97 1013.36 1013.64 1014.00 1014.37 1014.54 1014.76 1014.95 1015.10 1015.26 1015.54 1015.84 1016.09 1016.22 1016.17
1010.65 1009.53 1009.30 1008.54 1007.73 1007.19 1006.44 1003.28 1003.70 1003.47 1002.81 1002.66 1002.50 1001.95 1001.80 1001.71 1001.70 1002.20 1003.08 1003.82 1004.84 1005.54 1006.33 1006.75 1007.55 1008.24 1009.06 1009.86 1010.57 1010.98 1011.31 1011.62 1011.96 1012.47 1012.84 1013.25 1013.58 1014.04 1014.36 1014.52 1014.68 1014.86 1015.25 1015.57 1015.86 1016.04 1016.36 1016.17 1015.94
1009.54 1009.41 1009.16 1008.35 1007.50 1006.75 1005.66 1004.00 1004.06 1003.27 1003.14 1002.85 1002.32 1001.66 1001.26 1000.84 1000.82 1001.88 1002.79 1003.75 1004.74 1005.63 1006.21 1006.93 1007.46 1008.31 1009.28 1010.17 1010.57 1010.81 1011.11 1011.50 1012.00 1012.46 1012.85 1013.31 1013.63 1014.20 1014.56 1014.61 1014.74 1014.98 1015.34 1015.71 1016.03 1016.23 1016.93 1016.36 1017.16
1009.50 1009.24 1008.90 1008.71 1008.18 1007.42 1005.74 1004.82 1004.27 1004.26 1003.16 1002.67 1002.18 1001.44 1000.84 1000.75 1000.62 1001.59 1002.52 1003.57 1004.48 1005.53 1006.30 1006.88 1007.43 1008.24 1009.15 1009.58 1009.91 1010.30 1010.65 1011.47 1012.07 1012.42 1012.98 1013.35 1013.77 1014.12 1014.30 1014.77 1015.09 1014.84 1015.46 1015.91 1016.31 1016.59 1017.09 1017.55 1017.57
1009.16 1008.75 1008.64 1008.29 1008.07 1007.79 1005.93 1005.06 1004.22 1003.64 1002.36 1002.38 1001.93 1001.04 1000.51 1000.54 1000.76 1001.27 1002.22 1003.00 1003.85 1004.96 1005.93 1006.38 1006.99 1007.83 1008.78 1009.14 1009.78 1010.15 1010.64 1011.58 1012.07 1012.60 1013.04 1013.36 1013.88 1014.40 1014.80 1015.31 1015.70 1015.93 1015.92 1015.83 1016.58 1016.72 1017.52 1017.98 1018.40
1008.48 1008.44 1008.57 1008.24 1008.06 1007.47 1006.27 1004.44 1003.34 1002.30 1002.06 1001.78 1001.19 1000.50 1000.17 1000.04 1000.09 1000.73 1001.57 1002.60 1003.66 1004.72 1005.37 1005.77 1006.63 1007.64 1008.50 1009.20 1010.03 1010.56 1011.26 1011.86 1012.77 1013.28 1013.59 1014.21 1014.62 1015.06 1015.18 1015.65 1016.41 1016.22 1016.13 1015.97 1017.36 1017.48 1017.90 1018.15 1018.41
1007.18 1008.00 1008.43 1008.23 1008.31 1006.63 1005.87 1003.28 1001.60 1001.04 1000.34 1000.52 1000.03 999.73 999.29 999.52 999.80 1000.09 1000.86 1001.97 1003.00 1003.66 1004.50 1005.65 1006.66 1007.73 1008.57 1009.34 1009.98 1010.50 1011.15 1012.35 1013.25 1013.73 1014.36 1014.88 1015.14 1015.57 1016.03 1017.00 1015.72 1016.70 1016.65 1017.42 1017.58 1018.17 1018.17 1018.28 1017.83
1006.86 1007.83 1008.17 1008.35 1007.96 1007.16 1005.57 1004.17 1000.19 1000.36 999.39 998.52 998.63 998.52 998.35 998.57 999.11 999.50 1000.35 1001.47 1002.12 1003.28 1004.45 1005.70 1006.73 1007.68 1008.58 1009.36 1009.98 1010.95 1012.01 1013.08 1013.96 1014.52 1015.03 1015.57 1016.16 1016.20 1016.71 1016.68 1017.09 1017.49 1018.24 1017.86 1018.00 1017.84 1018.26 1018.55 1018.31
1007.65 1008.40 1008.60 1008.84 1008.16 1006.73 1003.76 1003.18 999.47 999.13 997.84 997.32 997.01 997.38 997.30 997.91 998.28 999.22 1000.16 1001.10 1002.25 1003.54 1004.68 1005.80 1006.82 1007.81 1008.68 1009.54 1010.41 1011.26 1012.19 1013.12 1014.11 1014.77 1015.20 1016.02 1016.47 1016.74 1017.34 1017.62 1017.80 1018.94 1019.12 1018.59 1018.41 1018.76 1018.70 1018.88 1018.67
1008.00 1008.37 1008.34 1008.22 1007.26 1004.18 1003.26 1002.59 999.63 997.70 997.08 996.46 995.72 996.42 996.81 997.36 997.92 998.82 999.83 1000.96 1002.50 1003.57 1004.85 1005.92 1007.12 1007.96 1008.64 1009.65 1010.56 1011.44 1012.25 1013.04 1013.70 1014.19 1014.68 1015.41 1016.09 1016.64 1016.71 1017.93 1018.57 1019.12 1018.75 1018.59 1018.64 1019.04 1019.39 1019.42 1018.84
1007.12 1006.87 1006.34 1006.06 1004.89 1002.97 1002.70 1000.36 998.18 998.02 997.10 996.40 995.96 996.19 996.93 997.36 997.91 998.89 999.94 1001.01 1002.53 1003.84 1005.03 1006.08 1007.12 1008.02 1008.93 1009.72 1010.67 1011.40 1011.96 1012.64 1013.31 1014.04 1014.57 1015.05 1015.60 1016.11 1015.92 1017.72 1018.79 1019.02 1019.16 1019.04 1019.29 1019.45 1019.47 1019.32 1019.23
1006.67 1006.15 1006.03 1006.13 1004.54 1002.79 1000.49 998.89 997.45 996.62 996.17 995.88 995.87 996.11 996.23 997.14 997.90 999.30 1000.32 1001.66 1003.11 1004.30 1005.36 1006.25 1007.17 1008.27 1009.12 1009.98 1010.71 1011.32 1012.06 1012.82 1013.67 1014.48 1015.24 1015.95 1016.67 1016.84 1017.34 1017.94 1018.85 1019.10 1019.47 1019.56 1019.90 1019.75 1019.60 1019.57 1019.18
1006.63 1006.08 1006.28 1006.11 1004.14 1001.71 998.74 997.58 996.04 994.73 995.00 995.13 995.00 995.52 996.12 997.23 998.33 999.73 1001.13 1002.66 1003.78 1005.00 1006.00 1006.91 1007.72 1008.41 1009.28 1010.05 1010.75 1011.58 1012.57 1013.54 1014.28 1015.17 1016.11 1016.96 1017.66 1017.56 1017.94 1018.54 1018.98 1019.82 1019.83 1020.21 1020.00 1020.19 1019.99 1019.79 1019.62
1006.03 1005.91 1005.66 1004.93 1003.46 1001.31 998.41 995.80 995.12 993.81 993.77 994.16 994.14 994.99 995.94 997.28 998.63 1000.26 1001.76 1003.28 1004.62 1005.82 1006.67 1007.57 1008.34 1008.96 1009.81 1010.71 1011.52 1012.36 1013.29 1014.01 1014.94 1015.90 1016.63 1017.20 1018.22 1018.78 1018.98 1019.00 1019.42 1020.44 1020.14 1020.13 1020.41 1020.31 1020.12 1019.83 1019.57
1004.14 1004.32 1004.39 1003.62 1002.96 1001.97 999.34 995.53 993.87 993.98 993.43 993.73 994.19 995.29 996.37 997.95 999.70 1001.48 1002.88 1004.14 1005.40 1006.47 1007.52 1008.28 1009.15 1009.80 1010.57 1011.42 1012.20 1013.28 1013.99 1014.72 1015.41 1016.40 1017.33 1017.99 1018.55 1018.96 1019.58 1019.71 1020.00 1020.35 1020.43 1020.31 1020.56 1020.26 1020.00 1019.99 1019.71
Wind_Speed
4 3 1 2 6 4 8 8 1 6 4 2 5 5 6 3 3 1 4 15 18 20 20 20 21 20 20 20 21 22 21 20 19 20 19 18 18 16 16 15 13 12 12 12 11 11 11 11 10
1 2 1 2 6 10 10 8 12 9 3 2 4 8 10 13 4 3 6 12 21 19 18 19 21 20 19 20 21 21 21 20 20 20 19 18 17 16 15 14 13 13 12 11 10 10 10 9 9
2 2 4 5 6 14 10 7 14 12 8 6 5 5 3 3 4 5 12 19 21 19 18 18 22 21 20 19 21 20 20 20 20 20 20 18 17 16 14 13 13 13 12 11 10 9 9 8 8
2 4 2 7 14 12 13 4 8 10 9 5 3 8 3 4 1 5 19 22 23 20 18 21 21 21 20 19 19 20 20 20 20 20 19 18 17 15 13 12 11 11 11 10 9 8 7 7 7
2 1 6 8 17 6 11 10 3 5 2 5 2 5 4 4 7 15 19 20 22 21 18 19 20 20 20 20 20 20 20 20 20 20 18 17 15 14 12 11 10 10 9 8 8 7 6 7 7
5 1 7 18 17 8 10 6 10 11 8 6 5 8 3 3 8 13 16 18 18 20 18 18 18 19 19 19 19 20 20 20 19 19 17 15 14 13 12 11 10 9 9 9 9 8 8 7 6
7 5 14 14 13 14 10 8 17 15 18 16 4 6 4 2 8 13 16 16 17 19 19 16 16 17 19 18 18 19 19 19 18 18 16 15 13 12 11 11 9 8 8 7 7 7 5 5 4
4 4 12 10 12 13 3 9 8 19 21 16 6 8 6 5 11 13 15 16 17 17 17 17 15 15 15 15 16 16 17 17 17 16 15 14 13 12 10 9 8 8 8 7 6 5 5 5 6
3 9 14 16 14 7 3 11 5 3 14 6 6 12 4 13 15 14 15 15 15 15 15 16 16 15 14 14 14 14 15 15 14 13 13 11 9 10 11 6 8 7 6 5 4 4 4 5 7
10 12 18 6 12 9 7 14 7 5 7 12 9 12 6 16 18 19 19 19 20 19 18 16 16 15 15 12 14 13 12 11 11 11 12 8 8 7 6 6 6 5 5 4 4 5 6 7 4
8 16 11 6 2 6 13 13 9 11 19 13 13 9 7 15 17 19 20 22 23 19 12 15 15 15 16 13 10 7 7 8 8 11 10 8 6 6 5 4 5 4 5 4 5 5 4 4 4
11 10 14 14 13 10 10 7 9 13 19 9 11 8 9 10 16 18 21 22 24 22 17 15 16 14 14 10 10 10 8 8 8 9 10 7 5 6 5 4 4 4 3 3 4 2 3 5 5
13 17 11 9 10 11 14 17 16 19 14 15 18 16 13 12 15 15 15 16 19 22 21 16 15 15 13 13 9 9 9 8 9 8 9 7 7 6 5 4 4 3 3 3 3 2 3 4 5
2 6 9 12 19 13 14 21 16 13 14 21 19 20 15 14 15 16 16 19 21 20 21 17 17 16 14 12 11 9 8 8 8 8 8 9 7 6 6 5 4 4 3 2 3 3 4 4 4
8 12 9 13 13 14 13 23 34 16 20 17 14 14 12 14 15 21 20 19 19 17 19 16 18 16 14 13 10 8 7 7 8 8 10 10 8 7 5 5 4 3 2 3 3 3 2 2 2
10 9 8 1 11 15 15 29 25 10 17 25 22 23 20 17 15 20 19 19 19 17 19 18 15 16 15 12 9 7 8 8 8 7 7 9 9 8 7 5 4 1 2 1 3 3 1 1 2
5 9 8 6 5 7 21 27 6 6 17 16 15 19 17 15 14 17 20 21 21 20 19 19 18 18 16 9 8 9 10 8 7 6 6 8 8 8 5 4 2 4 5 4 3 3 2 1 5
7 8 8 11 4 13 19 26 16 19 14 13 12 16 15 16 15 19 21 19 19 18 17 17 14 14 11 7 9 8 7 7 5 5 5 7 6 6 5 3 1 5 5 5 4 5 4 6 4
14 16 16 12 10 11 19 16 17 14 20 18 16 16 13 13 14 19 19 21 19 18 15 16 15 14 12 11 10 8 8 6 5 4 5 5 4 5 5 4 6 5 6 6 5 3 3 3 4
20 21 19 16 15 15 22 22 20 17 24 17 17 19 16 10 14 20 21 20 20 18 16 15 16 16 13 9 7 4 7 5 4 5 6 7 8 9 8 7 6 5 5 7 7 6 3 0 5
21 22 16 20 10 17 19 24 26 24 24 19 19 20 17 14 17 21 21 21 20 19 19 18 15 15 13 10 8 7 8 8 5 6 6 10 12 9 10 11 5 3 7 6 3 2 3 3 3
24 18 18 17 10 10 10 14 19 15 26 22 21 20 19 14 18 21 22 21 21 21 19 16 15 14 12 13 10 10 6 6 4 7 8 8 10 9 9 7 6 4 4 4 3 1 2 2 1
21 16 15 16 16 15 17 12 17 17 17 24 24 21 20 15 20 22 22 21 22 17 15 14 14 14 13 13 11 10 12 9 7 8 11 10 9 10 8 10 9 5 2 4 4 4 4 2 2
4 9 8 10 10 11 25 18 14 17 24 20 24 21 20 15 20 20 21 20 16 14 14 14 15 14 15 15 15 16 16 13 10 9 9 6 6 7 10 7 7 2 3 4 5 4 5 3 4
11 9 5 8 8 16 12 18 19 20 22 23 24 20 18 14 17 19 20 18 17 17 16 16 17 16 18 18 17 18 17 17 15 13 10 11 7 8 10 7 3 3 3 6 5 5 3 2 4
14 17 7 8 9 12 13 16 19 30 23 12 15 16 13 15 17 17 19 17 16 17 17 17 19 19 19 17 18 16 18 11 9 10 9 9 10 10 13 8 5 4 4 5 4 3 3 4 4
3 13 10 5 11 10 15 17 17 25 21 21 16 16 17 17 18 19 18 16 17 17 15 17 19 18 18 16 15 14 12 11 11 11 10 7 11 11 11 10 8 7 6 5 2 3 3 3 4
4 5 7 6 6 11 15 22 13 22 25 18 18 20 17 16 19 18 18 17 15 14 13 16 16 15 15 15 12 10 10 13 12 11 13 13 10 11 11 11 10 6 6 3 3 2 2 3 2
5 4 4 6 9 6 11 15 19 14 24 22 21 22 20 19 19 19 16 17 18 14 15 14 13 13 13 10 12 13 13 15 14 13 13 13 12 10 10 10 10 6 5 4 3 3 4 5 4
11 7 15 10 9 8 7 3 12 15 15 21 18 19 21 21 20 18 18 19 18 15 14 13 12 13 12 13 14 14 14 15 15 14 14 13 13 11 9 9 9 7 6 5 4 4 4 3 3
Wind_Direction
296 304 232 171 219 244 228 220 255 207 241 201 135 205 252 257 207 43 329 180 148 155 154 150 138 136 137 134 133 131 131 132 134 134 135 135 134 137 139 135 133 133 136 137 139 137 136 135 134
142 164 116 128 230 215 219 217 208 204 227 287 270 246 262 268 221 128 108 149 150 150 153 151 139 138 138 139 133 133 133 134 134 135 137 137 137 140 140 136 137 142 146 146 143 140 139 136 135
127 20 205 204 217 224 238 197 221 239 232 273 288 245 257 265 135 141 137 148 145 152 154 149 141 142 143 143 136 136 136 136 137 139 140 140 141 143 143 142 143 147 151 152 148 144 142 143 143
188 157 137 234 218 226 230 184 224 221 253 208 293 261 244 38 30 134 147 151 148 151 155 146 143 144 145 142 140 139 140 141 142 142 143 143 146 145 144 144 145 150 153 156 150 143 143 144 142
67 185 219 236 236 243 230 231 147 193 250 178 341 265 267 54 96 135 150 157 150 148 155 150 144 145 145 145 145 144 144 145 145 143 145 146 146 142 142 143 147 149 152 150 145 144 143 145 144
175 241 221 230 228 225 240 232 246 248 251 272 267 273 279 102 129 144 149 156 153 146 151 148 145 147 146 148 150 148 149 147 145 144 147 147 146 144 144 146 149 150 153 158 156 156 161 161 162
232 210 231 249 244 242 231 202 227 240 264 256 266 281 311 205 139 148 147 151 154 148 148 152 154 152 149 152 153 152 151 148 147 148 149 148 148 146 147 146 149 148 150 153 157 163 161 173 188
216 241 237 229 227 254 214 198 225 213 238 258 239 241 241 150 149 142 145 152 156 153 152 156 157 160 160 157 153 153 150 149 149 150 151 151 149 145 149 143 147 154 156 156 155 166 183 212 233
162 232 239 234 221 219 178 214 186 219 233 204 204 241 81 143 147 149 148 157 162 160 161 162 161 164 163 161 157 151 151 147 149 152 151 149 161 162 159 133 148 158 157 162 175 197 229 256 263
209 227 235 226 241 243 244 240 212 252 220 231 258 259 306 169 168 166 170 166 172 168 168 168 168 165 164 165 160 157 158 163 167 170 168 170 159 162 165 157 162 163 179 193 211 231 247 252 273
219 240 232 183 324 296 275 255 242 252 250 233 239 250 358 180 190 182 182 179 175 166 163 172 170 170 171 165 163 163 163 164 171 174 172 167 165 165 174 161 173 181 190 212 209 220 244 293 310
252 247 250 264 289 303 290 311 286 249 249 261 249 309 316 203 201 199 189 183 172 170 169 169 175 173 175 167 172 167 168 171 173 177 173 171 174 176 177 183 181 194 202 224 237 264 302 306 304
241 250 247 260 286 289 292 272 272 260 253 265 278 278 276 259 221 212 205 187 174 173 172 171 173 178 177 173 170 173 176 177 176 174 177 180 185 183 185 190 200 211 213 229 258 307 328 311 309
326 298 276 267 258 261 277 281 277 246 245 252 255 266 267 250 230 210 200 188 185 176 171 170 177 179 178 178 173 172 180 174 180 177 178 183 188 184 190 197 207 216 228 263 304 302 318 346 336
283 282 277 247 240 242 251 272 248 258 258 263 247 246 243 250 272 214 198 196 189 180 166 169 178 178 179 180 177 182 185 183 187 185 181 184 189 188 197 205 216 220 246 261 278 309 314 308 313
275 278 275 343 227 221 202 254 254 242 233 248 251 256 256 258 264 211 197 184 187 180 175 167 179 179 179 177 178 189 188 194 193 189 185 188 190 190 192 193 201 223 251 343 67 120 176 301 348
243 262 249 275 263 230 211 246 278 269 248 261 256 258 254 252 233 199 189 182 183 182 179 173 178 181 181 173 177 192 190 195 193 190 192 194 202 201 207 201 160 97 100 107 99 90 11 46 24
247 252 253 261 234 228 234 248 254 279 286 289 294 268 255 243 217 188 188 181 178 185 182 177 177 179 173 173 185 189 184 185 183 192 198 195 206 199 204 203 168 130 114 97 65 51 26 39 342
260 261 262 261 273 286 261 275 273 276 274 268 267 267 263 245 208 190 176 178 177 180 176 176 171 174 175 182 183 186 182 175 176 188 192 192 180 174 172 130 120 123 93 82 73 74 62 18 333
251 257 259 262 250 257 265 270 269 260 265 265 267 261 259 237 192 181 179 178 180 173 179 176 185 182 187 181 177 170 158 162 154 149 133 126 105 94 81 82 60 53 82 72 47 42 30 121 311
243 249 252 254 262 259 267 269 264 253 257 256 253 254 256 228 194 182 177 179 178 181 184 183 179 178 179 162 149 120 118 122 93 91 92 95 94 80 89 102 64 82 49 54 35 12 269 222 247
257 240 239 242 242 254 205 267 257 247 244 239 243 241 241 219 203 183 178 177 176 192 190 180 171 167 160 158 150 144 139 112 90 99 93 84 88 87 77 17 121 40 69 113 103 6 254 243 157
255 247 233 237 239 263 248 257 262 241 240 226 229 232 236 222 198 188 175 176 188 183 177 165 159 155 153 154 142 110 103 100 95 97 93 82 73 79 68 85 18 31 12 91 92 75 75 52 80
249 214 238 221 233 241 240 226 249 232 219 224 221 220 228 206 197 187 177 175 173 169 155 145 142 143 139 124 120 117 118 118 115 117 108 108 96 89 68 37 54 7 78 90 78 83 82 89 99
185 155 178 196 198 240 233 233 236 207 227 224 217 211 213 199 190 180 172 164 159 153 147 142 136 133 129 123 121 126 128 135 144 147 146 139 121 109 111 76 77 8 29 55 73 75 84 72 76
199 194 190 212 213 246 217 225 232 231 243 249 247 211 195 185 180 179 171 162 154 147 142 144 138 133 128 131 132 137 142 155 147 139 143 134 133 136 119 119 127 107 75 75 68 104 94 82 82
180 209 206 317 247 256 223 231 250 229 227 235 240 192 182 181 172 174 162 151 146 144 138 142 136 134 137 140 141 155 152 141 128 122 108 95 114 120 117 125 116 100 88 80 77 64 68 60 55
206 195 169 215 242 232 229 227 234 203 213 221 211 196 178 172 162 154 147 139 130 120 122 123 129 134 139 143 147 136 113 113 106 108 107 109 107 113 116 120 110 104 92 83 66 86 89 104 85
184 182 192 257 239 273 276 222 208 219 199 204 201 182 168 163 153 143 130 125 114 110 113 116 118 117 120 115 110 114 111 115 106 114 116 114 118 112 110 110 106 112 100 83 100 105 116 97 89
201 199 206 221 225 234 285 204 190 207 195 194 194 164 157 144 140 129 126 121 112 108 112 111 116 113 113 110 106 107 109 113 114 112 114 118 113 104 103 96 96 96 84 80 108 104 91 104 135